Regional Weather Roundup
Issued by NWS

Home | Current Version | Previous Version | Graphics & Text | Print | Product List | Glossary On
Versions: 1 2 3 4 5 6 7 8 9 10 11 12 13 14 15 16 17 18 19 20 21 22 23 24 25 26 27 28 29 30 31 32 33 34 35 36 37 38 39 40 41 42 43 44 45 46 47 48 49 50
000
ASUS45 KBOU 011707
RWRCO

WEATHER ROUNDUP FOR COLORADO
NATIONAL WEATHER SERVICE DENVER/BOULDER CO
1100 AM MDT TUE SEP 01 2015

NOTE: "FAIR" INDICATES FEW OR NO CLOUDS BELOW 12000 FEET WITH NO
SIGNIFICANT WEATHER AND/OR OBSTRUCTIONS TO VISIBILITY.

COZ001>005-013-030-031-011800-
...NORTHWEST COLORADO...

CITY           SKY/WX    TMP DP  RH WIND       PRES   REMARKS
CRAIG          SUNNY     75  49  39 NE7       30.22S
HAYDEN         NOT AVBL
MEEKER         SUNNY     72  51  47 CALM      30.24S
MOUNT WERNER   NOT AVBL
STEAMBOAT SPGS SUNNY     67  47  48 CALM      30.26F
WALDEN         SUNNY     64  46  52 W7        30.33S
$$

COZ006>008-011-011800-
...WEST CENTRAL VALLEYS...

CITY           SKY/WX    TMP DP  RH WIND       PRES   REMARKS
GRAND JUNCTION MOSUNNY   75  49  39 S3        30.15S
MONTROSE       SUNNY     77  47  34 E3        30.22F
EAGLE          MOSUNNY   64  48  55 CALM      30.30
RIFLE          MOSUNNY   69  50  50 W5        30.21S
DELTA          SUNNY     79  46  31 CALM      30.19F
NUCLA          SUNNY     77  45  31 SW5       30.26F
$$

COZ017>023-064>068-011800-
...SOUTHWEST COLORADO...

CITY           SKY/WX    TMP DP  RH WIND       PRES   REMARKS
DURANGO        PTSUNNY   71  44  37 E5        30.30S
CORTEZ         SUNNY     76  47  35 SW3       30.23F
PAGOSA SPRINGS MOSUNNY   68  40  35 S5        30.36S
TELLURIDE      SUNNY     66  38  36 CALM      30.45F
WOLF CREEK PAS MOSUNNY   52  36  54 SW7       30.66S
$$

COZ009-010-012-014-032>034-037-058>063-011800-
...CENTRAL COLORADO...

CITY           SKY/WX    TMP DP  RH WIND       PRES   REMARKS
ASPEN          SUNNY     68  43  40 N6        30.33F
BUENA VISTA    SUNNY     70  39  32 E5        30.34F
COPPER MTN     PTSUNNY   54  37  54 W17       30.63R
BERTHOUD PASS  FAIR      45  32  61 NW24G35   30.65S
COTTONWOOD PAS SUNNY     66  41  39 CALM      30.47F
GUNNISON       SUNNY     63  43  48 CALM      30.39F
KREMMLING      SUNNY     61  41  48 CALM      30.35F
LEADVILLE      MOSUNNY   61  35  37 W10G17    30.47R
SALIDA         SUNNY     69  43  38 CALM      30.38F
SUNLIGHT       MOSUNNY   55  46  71 CALM      30.57S
WILKERSON PASS SUNNY     54  36  50 CALM      30.60S
$$

COZ069>075-011800-
...SAN LUIS VALLEY/SANGRE DE CRISTO MOUNTAINS...

CITY           SKY/WX    TMP DP  RH WIND       PRES   REMARKS
ALAMOSA        MOSUNNY   61  50  67 W6        30.35S
LA VETA PASS   PTSUNNY   55  43  62 MISG      30.50S
SAGUACHE       MOSUNNY   68  43  40 W7        30.36F
$$

COZ035-036-038>040-011800-
...NORTHERN COLORADO FRONT RANGE...

CITY           SKY/WX    TMP DP  RH WIND       PRES   REMARKS
DENVER INTL AP MOSUNNY   82  43  25 NW8       30.12F
DMNS CITY PARK   N/A     84  44  24 E1G12     30.12F
AURORA         MOSUNNY   80  44  27 W5        30.15S
FRONT RANGE AP MOSUNNY   81  39  22 W7        30.14S
ERIE MUNI ARPT SUNNY     82  40  22 CALM      30.10F
BOULDER MUN AP SUNNY     82  45  26 E5        30.10F
CENTENNIAL     MOSUNNY   79  44  28 VRB6      30.16S
BROOMFIELD     MOSUNNY   82  46  28 S5        30.15S
FORT COLLINS   SUNNY     79  52  38 SE6       30.11S
LONGMONT       SUNNY     81  53  37 E3        30.10F
$$

COZ041-046-047-076>085-087-088-011800-
...PIKES PEAK/PALMER DIVIDE AND SOUTHERN FOOTHILLS...

CITY           SKY/WX    TMP DP  RH WIND       PRES   REMARKS
COLO. SPRINGS  MOSUNNY   75  53  46 VRB3      30.20F
A. F. ACADEMY  MOSUNNY   79  39  24 VRB2      30.20F
ELLICOTT       MOSUNNY  N/A N/A N/A NW8       30.18S
FALCON         MOSUNNY   74  45  35 MISG      30.25F
FORT CARSON    MOSUNNY   76  50  39 VRB5      30.17S
LIMON          MOSUNNY   75  54  47 W3        30.14S
MONUMENT HILL  MOSUNNY   73  37  27 N6        30.26S
TRINIDAD       MOSUNNY   79  49  34 W6        30.18R
$$

COZ042>045-048>051-090-091-011800-
...NORTHEAST COLORADO...

CITY           SKY/WX    TMP DP  RH WIND       PRES   REMARKS
GREELEY ARPT   SUNNY     79  54  41 SW3       30.09F
AKRON          SUNNY     79  53  40 W14       30.07F
BURLINGTON     SUNNY     80  57  45 VRB3      30.07S
WRAY           CLOUDY    84  54  36 NW3       30.03S
STERLING       NOT AVBL
HOLYOKE        NOT AVBL
FORT MORGAN    SUNNY     79  53  39 SW8       30.08S
$$

COZ086-089-092>099-011800-
...SOUTHEAST COLORADO...

CITY           SKY/WX    TMP DP  RH WIND       PRES   REMARKS
PUEBLO         MOSUNNY   86  50  28 W7        30.08F
LA JUNTA       SUNNY     83  55  38 SW7       30.07F
LAMAR          SUNNY     82  60  47 N5        30.03F
SPRINGFIELD      N/A     83  54  36 VRB6      30.07S
$$




USA.gov is the U.S. government's official web portal to all federal, state and local government web resources and services.